Location: D?usko Gryfi?skie
(53.0221°N, 14.6762°E)
Time: 18:57:15
(UTC+00:00)

Daily predictions for brighter satellites

Satellite Brightness Start Highest point End
(mag) Time Altitude Azimuth Time Altitude Azimuth Time Altitude Azimuth
Okean O Rocket 3.3 17:11:08 10° SSW 17:15:12 39° W 17:19:19 10° NNW
Cosmos 1980 Rocket 2.6 17:12:59 10° SW 17:18:40 73° NW 17:24:25 10° NNE
Cosmos 1500 4.5 17:16:20 10° SE 17:19:03 19° E 17:21:47 10° NE
Cosmos 1943 Rocket 4.3 17:17:21 10° NNW 17:19:51 13° N 17:22:21 10° NNE
SL-08 RB Rocket 4.2 17:16:51 10° SE 17:21:02 38° ENE 17:25:17 10° N
CZ-2D R/B 3.9 17:17:33 10° S 17:21:19 61° WSW 17:25:08 10° NNW
Cosmos 1689 Rocket 3.2 17:21:20 10° NE 17:23:44 23° E 17:26:07 10° SSE
SJ-11-01 4.3 17:20:59 10° SSE 17:25:39 70° ENE 17:30:21 10° N
ERBS 2.5 17:22:50 10° SW 17:26:04 53° SE 17:29:19 10° ENE
Cosmos 1862 Rocket 3.6 17:22:25 10° N 17:26:56 68° ENE 17:31:23 10° SSE
Cosmos 1867 3.9 17:22:13 10° SW 17:27:41 71° NW 17:33:11 10° NE
Cosmos 1666 Rocket 3.5 17:24:01 10° S 17:28:18 67° E 17:32:37 10° NNE
BREEZE-M DEB (TANK) 4.3 17:25:54 10° SSW 17:28:29 14° SSE 17:30:17 10° SE
CZ-2C R/B 4.0 17:24:31 10° S 17:30:09 60° W 17:35:35 10° NNW
Aureole 2 Rocket 1.5 17:28:54 10° NNW 17:31:28 63° ENE 17:33:57 10° SE
Cosmos 2242 Rocket 4.2 17:28:13 10° N 17:32:26 36° ENE 17:36:34 10° SE
Cosmos 2322 Rocket 2.5 17:27:29 10° S 17:32:46 44° ESE 17:38:04 10° NE
Nadezhda 3 Rocket 4.0 17:27:40 10° N 17:34:03 70° ENE 17:40:25 10° SSE
Sich 1 3.5 17:31:30 10° SSW 17:35:53 69° WNW 17:40:20 10° N
Resurs 01 Rocket 3.6 17:35:08 10° ENE 17:36:56 12° NE 17:38:47 10° NNE
Cosmos 1461 3.2 17:33:08 10° SW 17:37:53 76° SE 17:42:36 10° NE
ATLAS 5 CENTAUR R/B 3.2 17:25:09 10° SW 17:38:25 80° NW 17:42:04 10° NE
Meteor 1-25 Rocket 4.2 17:34:08 10° S 17:39:52 75° E 17:45:33 10° NNE
Cosmos 1697 Rocket 4.2 17:34:54 10° WSW 17:40:06 36° NW 17:45:18 10° NNE
COSMOS 2428 4.4 17:41:44 10° ESE 17:42:30 11° ESE 17:42:30 11° ESE
Cosmos 2074 Rocket 4.0 17:37:42 10° S 17:43:59 88° E 17:50:17 10° N
Cosmos 2154 Rocket 4.0 17:38:08 10° S 17:44:14 62° E 17:50:21 10° NNE
Abrixas rocket 3.1 17:42:23 10° SW 17:44:30 24° S 17:45:57 15° ESE
YAOGAN 1 2.8 17:40:43 10° S 17:45:02 76° WSW 17:49:24 10° NNW
Helios 1A Rocket 2.8 17:41:08 10° SSE 17:45:11 71° ENE 17:49:13 10° NNW
FALCON 9 DEB 2.9 17:43:01 10° W 17:46:12 88° N 17:48:33 17° E
Meteor 1-14 Rocket 4.4 17:42:22 10° SSE 17:47:40 47° E 17:52:56 10° NNE
Cosmos 1610 Rocket 4.5 17:41:49 10° S 17:47:56 65° E 17:54:11 10° NNE
COSMO-SKYMED 1 3.2 17:43:46 10° N 17:48:05 61° WNW 17:52:22 10° SSW
Cosmos 2219 Rocket 3.6 17:47:29 10° SE 17:50:41 16° E 17:53:41 11° ENE
SJ-6B 3.7 17:47:08 10° SE 17:50:43 30° ENE 17:54:17 10° N
GP-B 3.4 17:48:23 10° SSE 17:52:36 45° E 17:56:51 10° N
Cosmos 2263 Rocket 4.3 17:49:00 10° NW 17:53:43 29° WSW 17:58:24 10° SSW
MetOp-A 4.4 17:49:02 10° SE 17:54:09 48° ENE 17:59:19 10° N
Meteor 1-18 Rocket 4.5 17:48:22 10° NNW 17:54:21 84° W 18:00:16 10° S
Cosmos 1992 Rocket 4.1 17:51:29 10° S 17:56:35 56° ESE 18:01:43 10° NNE
SL-16 R/B 2.2 17:51:33 10° SSW 17:57:13 77° ESE 18:02:55 10° NNE
USA 234 4.1 17:52:33 12° ENE 17:57:26 28° SE 18:02:53 10° S
ARGOS 3.3 17:52:44 10° SSE 17:58:10 82° WSW 18:03:40 10° NNW
FALCON 9 DEB 2.8 17:55:29 10° W 17:58:41 88° N 18:00:32 23° E
Cosmos 1515 4.3 17:54:55 10° NNW 17:58:43 60° W 18:02:28 10° S
Okean 1 3.8 17:54:47 10° NNW 17:58:48 64° W 18:02:47 10° S
SeaSat 1 2.8 17:56:07 10° NE 18:00:50 42° ESE 18:05:30 10° S
SJ 16-02 2.7 17:57:25 10° N 18:00:54 22° NE 18:02:34 18° E
Okean 1-7 3.1 17:58:02 10° N 18:02:21 54° ENE 18:06:37 10° SSE
Cosmos 1633 Rocket 3.5 18:00:00 10° SSW 18:04:24 68° WNW 18:08:51 10° N
OBJECT-B 1.7 18:03:22 23° E 18:04:24 28° ENE 18:07:15 10° N
Cosmos 2184 Rocket 4.3 17:58:29 10° SSW 18:04:38 72° WNW 18:10:53 10° N
Cosmos 2369 Rocket 4.3 18:02:21 10° NNW 18:04:53 13° N 18:07:24 10° NE
CZ-2C R/B 2.7 18:00:44 10° NNE 18:06:12 58° E 18:11:30 10° S
SAR-Lupe-4 3.4 18:05:18 10° NNE 18:08:55 78° ESE 18:12:29 10° SSW
CZ-4 R/B 3.0 18:06:01 10° SSW 18:09:36 36° W 18:13:16 10° NNW
H-2A R/B 3.2 18:04:23 10° S 18:09:41 50° W 18:15:00 10° NNW
USA 305 2.9 18:08:00 10° W 18:12:18 78° N 18:14:50 24° E
DMSP B5D2-2 4.3 18:07:33 10° NNE 18:12:34 44° E 18:17:33 10° S
Gbstr 26 Del rocket 3.3 18:10:33 10° W 18:15:03 77° S 18:18:26 23° E
SL-8 Rocket 4.2 18:10:19 10° SSE 18:16:13 47° E 18:22:06 10° NNE
Cosmos 2237 4.2 18:10:54 10° SSW 18:16:32 62° ESE 18:22:12 10° NE
SL-4 R/B 1.9 18:13:39 10° W 18:17:09 57° SSW 18:18:38 29° SE
Cosmos 962 Rocket 4.4 18:12:05 10° S 18:18:14 67° E 18:24:30 10° NNE
Cosmos 1869 Rocket 4.1 18:17:11 10° SSE 18:21:09 35° E 18:25:10 10° NNE
USA 307 2.9 18:19:18 10° W 18:23:36 77° N 18:25:41 29° E
Cosmos 1339 Rocket 4.4 18:18:49 10° N 18:25:01 74° ENE 18:31:17 10° SSE
USA 186 0.8 18:25:07 70° SE 18:25:20 80° ENE 18:27:50 10° N
ATLAS CENTAUR R/B 1.3 18:22:36 10° SSW 18:26:03 44° SE 18:26:57 36° E
ERS-2 2.5 18:22:31 10° N 18:26:10 65° WNW 18:29:47 10° SSW
USA 306 2.9 18:22:42 10° W 18:26:59 77° N 18:28:56 31° E
Cosmos 1378 3.6 18:25:21 10° N 18:28:53 38° ENE 18:29:16 37° E
FALCON 9 DEB 2.8 18:25:57 10° W 18:29:08 85° S 18:29:48 52° ESE
Cosmos 1844 Rocket 3.2 18:23:39 10° NW 18:29:09 60° WSW 18:34:37 10° SSE
CSL-04 Rocket 4.4 18:25:17 10° S 18:30:45 58° WSW 18:36:11 10° NNW
FALCON 9 DEB 2.8 18:27:54 10° W 18:31:07 88° S 18:31:45 54° E
Cosmos 2366 rocket 4.2 18:25:10 10° SSE 18:31:13 49° E 18:37:18 10° NNE
Cosmos 1777 Rocket 3.9 18:28:46 10° NNW 18:34:04 84° ENE 18:37:59 18° SSE
USA 308 2.9 18:29:54 10° W 18:34:11 77° N 18:35:51 36° E
Cosmos 1666 2.5 18:31:49 10° S 18:35:29 62° E 18:39:11 10° NNE
Cosmos 2341 Rocket 3.9 18:33:19 10° S 18:39:37 82° E 18:45:55 10° NNE
SPOT 3 Rocket 4.0 18:37:59 32° ESE 18:39:43 42° ENE 18:44:37 10° N
Meteor 1-5 Rocket 4.0 18:34:33 10° S 18:39:55 78° E 18:45:30 10° NNE
Cosmos 2333 4.4 18:35:05 10° S 18:40:27 47° ESE 18:45:55 10° NE
Okean 3 3.4 18:36:42 10° N 18:40:57 67° ENE 18:42:57 30° SSE
Cosmos 1844 4.2 18:35:16 10° NW 18:40:58 60° WSW 18:46:34 10° SSE
CZ-4B R/B 4.5 18:39:18 10° NNW 18:41:04 15° WNW 18:42:50 10° W
ARIANE 5 R/B 4.2 18:44:05 20° NE 18:44:05 20° NE 18:46:46 10° N
Cosmos 2221 Rocket 3.9 18:40:57 10° N 18:45:13 44° ENE 18:45:39 42° E
Ariane Rocket 2.9 18:42:04 17° SSE 18:46:00 80° ENE 18:51:08 10° NNW
Cosmos 2360 Rocket 2.1 18:40:56 10° SSW 18:46:35 83° ESE 18:52:18 10° NNE
Cosmos 2278 Rocket 2.5 18:41:11 10° NNW 18:46:44 49° NE 18:48:36 36° E
Cosmos 1727 Rocket 3.9 18:42:53 10° N 18:49:01 63° ENE 18:52:57 23° SSE
SPOT 1/Viking Rocket 4.4 18:49:19 29° ENE 18:49:35 29° ENE 18:54:00 10° N
Meteor 2-20 4.4 18:44:54 10° N 18:50:57 59° ENE 18:54:04 29° SE
Cosmos 1703 Rocket 4.5 18:48:24 10° NNW 18:52:41 49° W 18:56:53 10° S
Cosmos 1500 4.4 18:50:48 10° SW 18:54:21 42° WNW 18:57:56 10° N
Cosmos 2333 Rocket 2.3 18:51:16 10° S 18:56:43 50° ESE 19:02:15 10° NE
Cosmos 1821 Rocket 4.5 18:57:21 36° E 18:57:25 36° E 19:02:57 10° NNE
Cosmos 2218 Rocket 3.9 18:51:49 10° S 18:58:12 76° E 19:04:36 10° NNE
ERBS 2.9 18:59:04 10° W 19:02:18 48° NNW 19:02:18 48° NNW
Cosmos 1980 Rocket 4.4 18:59:14 10° W 19:03:42 23° NNW 19:08:10 10° NNE
Cosmos 1943 Rocket 3.6 19:01:24 10° NNW 19:05:51 23° NNE 19:06:52 22° NE
Cosmos 1674 Rocket 4.5 19:04:39 10° N 19:07:36 33° NE 19:07:36 33° NE
MetOp-B 4.3 19:08:50 49° E 19:09:26 51° ENE 19:14:38 10° N
IGS 5A 4.2 19:11:13 40° NNE 19:11:13 40° NNE 19:14:21 10° N
Resurs 01 Rocket 1.5 19:12:41 67° ENE 19:12:41 67° ENE 19:17:02 10° N
Cosmos 864 Rocket 4.4 19:08:48 10° S 19:14:59 89° E 19:21:15 10° N
Cosmos 2123 Rocket 4.4 19:09:19 10° N 19:15:14 41° ENE 19:15:27 41° ENE
SME Rocket 4.3 19:07:15 10° NNE 19:16:20 87° ESE 19:22:04 10° SSW
Cosmos 2322 Rocket 3.3 19:11:30 10° WSW 19:16:51 44° NW 19:22:16 10° NNE
Lacrosse 4 Rocket 3.9 19:14:14 10° SSW 19:14:29 11° SSW 19:14:29 11° SSW
Cosmos 1959 Rocket 4.4 19:14:18 10° SSW 19:20:25 82° W 19:26:36 10° N
Cosmos 192 4.2 19:18:57 10° SSW 19:23:52 90° E 19:28:50 10° NNE
SJ-6B 4.4 19:22:30 16° SSW 19:25:19 34° W 19:29:03 10° NNW
ASTEX 1 3.6 19:20:49 10° N 19:25:41 68° W 19:30:11 12° SSW
COSMOS 2428 3.3 19:21:10 10° SSW 19:32:11 11° NE 19:32:23 10° NE
Cosmos 1937 Rocket 4.1 19:22:01 10° NNW 19:26:29 41° NE 19:26:29 41° NE
Meteor 1-23 Rocket 4.3 19:22:44 10° NNW 19:28:20 76° W 19:30:27 39° S
USA 245 4.3 19:29:59 59° ENE 19:30:12 59° ENE 19:36:19 10° N
Cosmos 2219 Rocket 2.0 19:28:07 10° SSW 19:33:43 78° ESE 19:39:22 10° NNE
Meteor 1-11 Rocket 3.9 19:28:01 10° SSW 19:33:43 73° WNW 19:39:20 10° N
OBJECT-B 3.0 19:36:26 23° W 19:36:40 23° W 19:39:20 10° NW
SeaSat 1 3.6 19:33:42 10° NNE 19:38:22 43° NW 19:43:01 10° WSW
SJ 16-02 1.7 19:35:32 10° NNW 19:39:35 61° W 19:39:35 61° W
Terra 3.6 19:42:57 21° NNE 19:42:57 21° NNE 19:45:06 10° N
USA 234 3.1 19:39:54 57° E 19:41:12 72° SSE 19:47:44 10° SW
SL-16 R/B 4.0 19:36:58 10° W 19:41:55 30° NW 19:46:53 10° NNE
Cosmos 1536 4.2 19:46:16 34° NNW 19:46:16 34° NNW 19:48:50 10° N
Meteor 2-20 Rocket 4.4 19:41:41 10° NNW 19:47:48 79° W 19:49:08 57° S
USA 281 4.0 19:47:39 36° NE 19:48:01 36° NE 19:53:53 10° NNW
Cosmos 2369 Rocket 3.6 19:46:23 10° NNW 19:50:42 25° NNE 19:50:42 25° NNE
USA 305 4.1 19:48:05 10° WNW 19:50:56 41° W 19:50:56 41° W
BREEZE-M DEB (TANK) 3.9 19:49:22 10° W 19:51:09 34° WSW 19:51:09 34° WSW
Cosmos 2322 4.0 19:48:09 10° SW 19:53:50 68° NW 19:59:34 10° NNE
SL-4 R/B 4.5 19:53:33 10° W 19:54:13 13° WSW 19:54:13 13° WSW
Meteor 1-21 4.4 19:52:42 10° N 19:57:32 61° NNE 19:57:32 61° NNE
Cosmos 1898 Rocket 3.8 19:53:26 10° NNW 19:57:51 64° NNW 19:57:51 64° NNW
Spot 2 Rocket 4.0 20:01:34 53° N 20:01:34 53° N 20:05:30 10° NNW
Gbstr 26 Del rocket 4.0 19:57:02 10° W 20:00:59 54° WSW 20:00:59 54° WSW
ERS-1 Rocket 4.1 20:04:10 37° N 20:04:10 37° N 20:07:20 10° N
USA 307 4.5 19:59:25 10° WNW 20:01:49 33° W 20:01:49 33° W
ATLAS CENTAUR R/B 3.6 20:01:43 10° W 20:03:11 20° W 20:03:11 20° W
Cosmos 2297 4.3 20:02:10 10° NNW 20:06:49 48° NNE 20:06:49 48° NNE
ARIANE 5 R/B 4.3 20:21:37 31° NNW 20:21:37 31° NNW 20:24:01 10° NNW
SPOT 1/Viking Rocket 4.5 20:29:56 45° NW 20:29:56 45° NW 20:33:50 10° NNW
Cosmos 2278 Rocket 3.3 20:25:31 10° NW 20:30:28 38° WSW 20:30:28 38° WSW
Cosmos 2360 Rocket 4.1 20:26:26 10° W 20:31:16 28° NW 20:36:08 10° NNE
Cosmos 2333 Rocket 3.3 20:35:47 10° WSW 20:41:10 41° NW 20:46:36 10° NNE
Resurs 01 Rocket 4.1 20:50:14 17° WNW 20:50:14 17° WNW 20:52:37 10° NW
Cosmos 1943 Rocket 3.4 20:44:54 10° NNW 20:48:24 38° NNW 20:48:24 38° NNW
Cosmos 2219 Rocket 3.9 21:13:26 10° W 21:18:16 29° NW 21:23:10 10° NNE
Terra 4.3 21:21:50 19° NNW 21:21:50 19° NNW 21:23:14 10° NNW
USA 234 4.4 21:27:15 35° W 21:27:15 35° W 21:30:47 10° W
USA 281 4.2 21:34:30 43° NW 21:34:30 43° NW 21:38:46 10° NNW
Cosmos 2369 Rocket 4.1 21:30:11 10° NNW 21:32:29 26° NNW 21:32:29 26° NNW
CENTAUR R/B 4.5 22:41:39 26° NE 22:41:39 26° NE 22:45:03 10° NE
SL-16 R/B 4.5 23:11:41 23° NNE 23:11:41 23° NNE 23:14:30 10° N
ATLAS 3B R/B 4.3 23:51:14 28° NE 23:51:14 28° NE 23:54:20 10° NE
